STARLINK-32657, 62475

Orbit data source: Space-Track

STARLINK-32657, 62475 is a payload satellite owned by SpaceX/Seattle (US) in LEO that was launched on Tue, 31 Dec 2024 UTC via an FALCON 9 launch vehicle from the Air Force Eastern Test Range (AFETR). Payload-class satellites include a variety of spacecraft equipped with specific instruments for various scientific and technological missions. These include communications satellites like Starlink; space stations such as the ISS; scientific satellites like the Hubble; Earth observation satellites from companies like Planet Labs, Umbra, and HawkEye 360; GPS; miniature CubeSats for education and research; and military/defense satellites.

Loading next visibility...
Identifier
62475, 2024-254P
Orbit
LEO
Country
Flag of USUS
Related business
Manufacturer
SpaceX/Seattle
Mission
Operational Commercial Communications
Bus & Motor
STARLINK V2M, Unknown motor
Mass
730 kg wet, ~700 kg dry
Launch date (UTC)
2024-12-31 (8 months ago)
Launch vehicle
FALCON 9
Launch site
Air Force Eastern Test Range (AFETR)
Object type
Payload
Rocket body
Debris
Shape & HBR
Box + 2 Pan, 14.5 m
Radar Cross Section
33.884 m², Large (>1 m²)

Expand to show TLE details & history
Last TLE update: 22 hours ago

TLE from 22 hours ago
0 STARLINK-32657
1 62475U 24254P   25242.09916380 -.00002627  00000-0 -85942-4 0  9993
2 62475  43.0036  21.6697 0001292 278.3182  81.7523 15.27591352 38162
Epoch: 2025-08-30T02:22Z
TLE epoch observation values (Epoch: 2025-08-30T02:22:47.752Z)
Latitude
-0.00002°
Longitude
7.43238°
Altitude
482.664 km
Speed
7.626 km/s
True Right ascension
01h 26m 40s
True Declination
0° 00' 00"
Sunlit
Object was in full shadow at epoch
Visualization orbit readout
Latitude
Unknown
Longitude
Unknown
Altitude
Unknown
Speed
Unknown
Apparent Right ascension
Unknown
Apparent Declination
Unknown
Sunlit
N/A
Visualization observer readout
Local Sidereal Time
16:22:38
Azimuth
Unknown
Elevation
Unknown
Doppler factor
Unknown
Orbital elements
Apogee altitude
485.846 km
Perigee altitude
484.073 km
Semi-major axis
6,863.097 km
Eccentricity
0.00013
Inclination
43.0036°
RAAN
21.6697°
Arg. of periapsis
278.3182°
True anomaly
81.76695°
Mean anomaly
81.7523°
Eccentric anomaly
81.75963°
Mean motion
3.81736 °/min
Orbital period
94.31 mins
BSTAR
-0.000085942
Loading maneuver chart data...
Computing Atmospheric mass density...
Loading historical data...
Loading historical data...
Loading historical data...
Loading historical data...
Loading historical data...
Loading historical data...
Loading historical data...

Documentation

Showing up to 5 results
|